#timestamp,LO_Frequency,Hit,StdDev 
1530669615.4,286046999.3,N
1530669635.2,286046998.1,N
1530669655.1,286047000.7,N
1530669656.0,286047000.7,N
1530669675.8,286046999.5,N
1530669695.6,286046996.7,N
1530669715.5,286046996.9,N
1530669735.3,286046997.0,N
1530669755.1,286046997.0,N
1530669775.9,286046999.0,N
1530669795.7,286046998.6,N
1530669815.5,286046997.2,N
1530669835.4,286046996.8,N
1530669855.2,286046997.4,N
1530669875.1,286046996.7,N
1530669876.0,286046996.7,N
1530669895.8,286046997.8,N
1530669915.6,286046996.7,N
1530669935.5,286046996.8,N
1530669955.3,286046997.5,N
1530669975.2,286046999.6,N
1530669995.9,286046998.8,N
1530670015.7,286046998.3,N
1530670035.6,286046998.4,N
1530670055.4,286046996.5,N
1530670075.2,286046999.6,N
1530670095.1,286046996.7,N
1530670096.0,286046996.7,N
1530670115.8,286046997.1,N
1530670135.7,286046996.9,N
1530670155.5,286046999.4,N
1530670175.3,286046996.9,N
1530670195.2,286046997.4,N
1530670215.0,286046999.5,N
1530670215.9,286046999.5,N
1530670235.8,286046998.0,N
1530670255.6,286046993.3,Y
1530670275.4,286046999.4,P
1530670295.3,286046998.3,N
1530670315.1,286046998.2,N
1530670335.8,286047000.6,N
1530670355.7,286046998.9,N
1530670375.5,286046998.7,N
1530670395.4,286047001.2,N
1530670415.2,286046999.7,N
1530670435.0,286047000.5,N
1530670435.9,286047000.5,N
1530670455.8,286047000.2,N
1530670475.6,286047001.8,N
1530670495.4,286047001.0,N
1530670515.3,286047001.2,N
1530670535.1,286046999.4,N
1530670555.9,286046998.9,N
1530670575.7,286047000.5,N
1530670625.6,286046998.5,E
1530670635.5,286047000.0,N
1530670655.3,286047003.9,P
1530670675.2,286047001.5,N
1530670695.9,286047002.6,N
1530670715.7,286047000.8,N
1530670735.6,286046999.9,N
1530670755.4,286047002.7,N
1530670775.2,286047001.4,N
1530670795.1,286047002.1,N
1530670796.0,286047002.1,N
1530670815.8,286047001.9,N
1530670835.7,286047002.4,N
1530670855.5,286047002.4,N
1530670875.3,286047002.0,N
1530670895.2,286047000.1,N
1530670915.0,286047000.8,N
1530670915.9,286047000.8,N
1530670935.8,286046999.6,N
1530670955.6,286046999.4,N
1530670975.4,286046998.0,N
1530670995.3,286046999.1,N
1530671015.1,286046998.6,N
1530671035.8,286047000.2,N
1530671055.7,286046999.8,N
1530671075.5,286047000.9,N
1530671095.4,286047000.5,N
1530671115.2,286046998.6,N
1530671135.0,286047000.8,N
1530671135.9,286047000.8,N
1530671155.8,286047000.4,N
1530671175.6,286047000.9,N
1530671195.4,286047000.0,N
1530671215.3,286047002.5,N
1530671235.1,286047001.9,N
1530671255.9,286047004.3,Y
1530671275.7,286047003.8,P
1530671295.5,286047004.0,N
1530671315.4,286047001.7,N
1530671335.2,286047003.2,N
1530671355.0,286047003.1,N
1530671355.9,286047003.1,N
1530671375.8,286047005.5,Y
1530671395.6,286047000.0,P
1530671415.5,286047001.0,N
1530671435.3,286047001.2,N
1530671455.1,286046998.6,N
1530671475.9,286047000.7,N
1530671495.7,286047002.3,N
1530671515.5,286046998.5,N
1530671535.4,286046998.5,N
1530671555.2,286047000.3,N
1530671575.1,286046998.5,N
1530671576.0,286046998.5,N
1530671595.8,286046998.7,N
1530671615.6,286046998.6,N
1530671635.5,286046998.1,N
1530671655.3,286047001.0,N
1530671675.1,286047001.9,N
1530671695.9,286047001.5,N
1530671715.7,286047002.6,N
1530671735.6,286047002.4,N
1530671755.4,286047002.2,N
1530671775.2,286047001.6,N
1530671795.1,286047002.2,N
1530671796.0,286047002.2,N
1530671815.8,286047004.0,N
1530671835.6,286047003.9,N
1530671855.5,286047002.3,N
1530671875.3,286047004.2,N
1530671895.2,286047003.6,N
1530671915.9,286047004.3,N
1530671935.7,286047003.6,N
1530671955.6,286047006.0,Y
1530671975.4,286047003.5,P
1530671995.2,286047003.5,P
1530672015.1,286047004.3,P
1530672016.0,286047004.3,Y
1530672035.8,286047000.9,P
1530672055.7,286047000.6,N
1530672075.5,286047001.0,N
1530672095.3,286046999.7,N
1530672115.2,286047000.6,N
1530672135.0,286047001.0,N
1530672135.9,286047001.0,N
1530672155.8,286047000.3,N
1530672175.6,286047000.9,N
1530672195.4,286047000.3,N
1530672215.3,286047001.0,N
1530672235.1,286047000.2,N
1530672255.8,286046999.9,N
1530672275.7,286046999.8,N
1530672295.5,286046999.9,N
1530672315.4,286047000.9,N
1530672335.2,286047000.0,N
1530672355.0,286047000.9,N
1530672355.9,286047000.9,N
1530672375.8,286047002.2,N
1530672395.6,286047000.2,N
1530672415.4,286047001.0,N
1530672435.3,286047001.0,N
1530672455.1,286047000.7,N
1530672475.9,286047001.0,N
1530672495.7,286047000.8,N
1530672515.5,286047000.1,N
1530672535.4,286047002.8,Y
1530672555.2,286047000.4,P
1530672575.0,286047002.8,P
1530672575.9,286047002.8,N
1530672595.8,286046999.9,N
1530672615.6,286047003.1,N
1530672635.5,286047004.0,Y
1530672655.3,286047001.2,P
1530672675.1,286046998.8,P
1530672695.9,286046999.3,N
1530672715.7,286046998.8,N
1530672735.6,286046998.8,N
1530672755.4,286046996.5,N
1530672775.2,286046999.2,N
1530672795.1,286046999.5,N
1530672796.0,286046999.5,N
1530672815.8,286046997.7,N
1530672835.6,286046997.2,N
1530672855.5,286046998.8,N
1530672875.3,286046999.6,N
1530672895.2,286046997.4,N
1530672915.9,286046996.6,N
1530672935.7,286046996.8,N
1530672955.6,286046998.3,N
1530672975.4,286046999.0,N
1530672995.3,286046997.1,N
1530673015.1,286046996.9,N
1530673016.0,286046996.9,N
1530673035.8,286046997.3,N
1530673055.7,286046994.9,Y
1530673075.5,286046998.8,P
1530673095.4,286047001.2,P
1530673115.2,286046998.5,N
1530673135.0,286046998.7,N
1530673135.9,286046998.7,N
1530673155.8,286046998.2,N
1530673175.6,286046999.8,N
1530673195.4,286047001.1,N
